Location: Bush Observatory
(40.2653°N, 94.3194°W)
Time: 03:29:32
(UTC-05:00)

Daily predictions for brighter satellites

Satellite Brightness Start Highest point End
(mag) Time Altitude Azimuth Time Altitude Azimuth Time Altitude Azimuth
ATLAS CENTAUR R/B 4.4 00:07:39 62° E 00:07:39 62° E 00:27:16 10° NE
Cosmos 2278 Rocket 4.4 00:21:14 10° N 00:23:57 18° NE 00:23:57 18° NE
SL-16 R/B 4.2 00:39:10 23° NW 00:39:10 23° NW 00:43:12 10° N
ATLAS 3B R/B 4.5 00:54:42 23° ENE 00:54:42 23° ENE 00:57:37 10° NE
Cosmos 2360 Rocket 4.1 00:58:48 26° N 00:58:48 26° N 01:01:36 10° N
Cosmos 2219 Rocket 4.3 01:21:35 22° NNE 01:21:35 22° NNE 01:23:27 10° NNE
Cosmos 2333 Rocket 4.2 01:33:46 25° NNE 01:33:46 25° NNE 01:36:01 10° NNE
Cosmos 2237 Rocket 4.2 01:37:53 24° NNE 01:37:53 24° NNE 01:40:01 10° NNE
CZ-4C R/B 4.4 02:01:21 18° ENE 02:01:21 18° ENE 02:03:00 10° NE
Cosmos 2278 Rocket 4.3 02:04:13 10° NNW 02:05:46 19° NNW 02:05:46 19° NNW
ATLAS 3B R/B 3.4 02:41:57 51° NW 02:41:57 51° NW 02:48:42 10° NNE
Cosmos 2369 Rocket 4.4 02:49:42 10° N 02:53:57 22° NE 02:58:12 10° ESE
COSMOS 2455 4.4 02:58:19 27° NNW 02:58:19 27° NNW 03:02:33 10° N
Cosmos 2219 Rocket 4.3 03:03:18 16° NW 03:03:18 16° NW 03:05:58 10° N
SL-16 R/B 3.4 03:14:39 35° NNW 03:14:39 35° NNW 03:18:30 10° N
Cosmos 2333 Rocket 4.2 03:15:47 18° NW 03:15:47 18° NW 03:19:02 10° N
ARIANE 5 R/B 3.9 03:11:23 10° NNE 03:15:40 33° E 03:15:40 33° E
Cosmos 2237 Rocket 4.2 03:19:43 19° NW 03:19:43 19° NW 03:22:57 10° N
BREEZE-M DEB (TANK) 4.3 03:21:55 32° N 03:21:55 32° N 03:25:24 10° NE
Resurs 1-4 Rocket 3.4 03:18:49 10° NE 03:23:29 32° E 03:23:37 32° E
USA 234 3.2 03:25:58 10° NE 03:32:32 73° SE 03:32:36 73° SE
USA 238 DEB 4.2 03:32:15 47° WNW 03:32:37 47° NW 03:39:25 10° NNE
USA 238 4.2 03:32:21 47° WNW 03:32:43 48° NW 03:39:32 10° NNE
Okean O Rocket 4.3 03:38:10 10° ENE 03:40:13 13° E 03:42:13 10° ESE
IRAS Rocket 4.3 03:35:53 10° NNE 03:41:03 76° NNE 03:41:03 76° NNE
BREEZE-M DEB (TANK) 3.9 03:43:46 53° W 03:45:19 65° NW 03:49:22 10° NE
CZ-4C R/B 3.0 03:46:31 40° NW 03:46:31 40° NW 03:51:57 10° NNE
Cosmos 2251 Rocket 3.7 03:48:47 70° ENE 03:48:47 70° ENE 03:53:36 10° NNE
NOSS 3-2 (A) 3.4 03:48:27 75° WNW 03:48:37 76° NW 03:55:16 10° NNE
ATLAS 5 CENTAUR R/B 3.1 03:51:30 31° ESE 03:51:36 31° ESE 03:56:03 10° NE
Cosmos 1110 Rocket 4.1 03:46:47 10° NNW 03:51:45 73° NE 03:51:45 73° NE
Cosmos 1603 4.1 03:56:00 49° NW 03:56:00 49° NW 04:01:10 10° NNE
NOSS 3-3 (A) 4.4 03:51:40 10° NW 03:59:12 87° WSW 04:07:10 10° SSE
NOSS 3-3 (C) 4.4 03:51:46 10° NW 03:59:17 88° WSW 04:07:17 10° SSE
In-Cosmos 22 Rocket 4.0 03:57:40 10° NNW 04:02:31 71° NW 04:02:31 71° NW
NOSS 3-2 (C) 3.4 04:04:08 66° W 04:04:53 73° NW 04:11:33 10° NNE
SL-16 R/B 2.4 04:05:49 52° S 04:07:27 83° WSW 04:13:41 10° NNW
S3M 4.4 04:07:52 44° WNW 04:07:52 44° WNW 04:13:39 10° N
CENTAUR R/B 3.8 04:05:36 23° SSE 04:08:11 32° ESE 04:13:56 10° NE
Cosmos 724 4.3 04:08:26 60° S 04:09:23 73° ESE 04:15:24 10° NE
Cosmos 1892 3.6 04:05:41 10° N 04:08:51 47° NE 04:08:51 47° NE
Meteor 2-3 Rocket 3.6 04:04:25 10° NNW 04:10:12 81° W 04:11:03 65° SSW
Meteor 2-10 4.2 04:11:13 53° SSE 04:12:29 74° E 04:17:55 10° NNE
Cosmos 2242 Rocket 3.6 04:14:02 82° E 04:14:02 82° E 04:18:35 10° N
ATLAS CENTAUR R/B 2.7 04:17:41 10° NNW 04:20:01 30° NNW 04:20:01 30° NNW
Cosmos 1726 4.2 04:24:53 19° NNW 04:24:53 19° NNW 04:26:19 10° NNW
Cosmos 1862 Rocket 4.3 04:23:05 35° SE 04:24:27 48° E 04:28:41 10° NNE
CZ-2D R/B 2.0 04:20:41 10° N 04:25:57 70° WNW 04:26:44 60° SW
Cosmos 1943 3.2 04:25:32 56° WSW 04:26:27 64° WNW 04:32:05 10° NNE
Cosmos 839 Rocket 4.2 04:19:32 10° NW 04:27:31 65° WSW 04:33:58 10° SSE
UNK 4.2 04:30:55 45° WNW 04:30:55 45° WNW 04:34:36 10° NNW
Cosmos 494 Rocket 4.0 04:30:01 56° WSW 04:30:40 61° WNW 04:35:53 10° NNE
Cosmos 1709 Rocket 3.9 04:27:59 10° N 04:34:20 73° W 04:37:51 28° S
PSLV R/B 3.7 04:35:27 61° ENE 04:35:27 61° ENE 04:38:22 10° E
Cosmos 2369 Rocket 2.1 04:32:52 10° NNW 04:38:21 58° WSW 04:41:03 30° S
PSLV R/B 4.3 04:36:30 10° NNE 04:40:12 55° E 04:41:24 37° SSE
Cosmos 1455 2.0 04:40:22 76° WSW 04:40:28 77° W 04:44:23 10° N
CZ-4B R/B 3.9 04:37:02 10° NNE 04:42:12 49° E 04:46:45 13° S
Cosmos 1302 Rocket 3.8 04:37:27 10° NNW 04:42:42 75° WSW 04:47:53 10° S
IRS-1D 4.1 04:38:50 10° N 04:43:38 39° WNW 04:44:24 37° W
Cosmos 389 Rocket 2.8 04:45:45 45° SSE 04:46:32 60° E 04:49:59 10° NNE
Cosmos 1733 Rocket 2.9 04:47:27 10° NNW 04:51:50 73° W 04:53:57 30° S
ARIANE 5 R/B 3.5 04:50:40 10° N 04:55:08 29° WNW 04:56:01 28° W
Cosmos 2074 Rocket 4.2 04:49:52 10° N 04:56:06 74° E 05:02:19 10° SSE
Cosmos 2184 Rocket 4.2 04:52:37 10° N 04:59:02 75° E 05:05:23 10° SSE
BREEZE-M DEB (TANK) 4.0 05:00:33 25° SSE 05:01:10 28° SE 05:04:29 10° ENE
Cosmos 1184 Rocket 2.8 04:58:45 10° NNW 05:02:10 65° W 05:02:58 46° SSW
Resurs 1-4 Rocket 3.0 04:58:40 10° N 05:03:16 31° WNW 05:04:42 27° W
Cosmos 1943 Rocket 2.1 04:59:21 10° NNW 05:05:03 83° WSW 05:10:41 10° SSE
SeaSat 1 2.5 05:05:17 10° SSE 05:10:06 56° WSW 05:14:58 10° NW
PAYLOAD B 4.2 05:04:57 10° NNE 05:10:32 87° WNW 05:15:35 12° SSW
USA 234 4.1 05:09:15 10° NE 05:15:13 39° NNW 05:19:56 16° W
Okean O Rocket 1.7 05:12:33 10° N 05:16:56 56° WNW 05:19:41 22° SW
Cosmos 1408 2.6 05:14:05 10° N 05:17:50 82° E 05:21:35 10° S
Cosmos 2221 Rocket 3.9 05:13:34 10° S 05:17:58 66° E 05:22:22 10° NNE
Cosmos 1825 2.1 05:15:27 10° N 05:19:16 87° E 05:23:03 10° S
Cosmos 1908 Rocket 3.4 05:15:13 10° N 05:19:37 82° W 05:23:58 10° S
ADEOS II 3.1 05:14:32 10° NNE 05:19:37 47° E 05:24:39 10° S
Okean-O 3.6 05:15:58 10° NNE 05:20:17 48° E 05:24:34 10° S
Cosmos 1862 3.2 05:17:25 10° N 05:21:25 80° W 05:25:22 10° S
USA 129 4.0 05:23:31 12° NNE 05:23:31 12° NNE 05:23:44 10° NNE
Pageos (A) 3.9 05:21:47 10° NNW 05:23:16 31° NW 05:23:16 31° NW
Thor Agena Rocket 3.5 05:19:58 10° SSE 05:25:05 83° WSW 05:30:19 10° NNW
Cosmos 1174 4.4 05:20:42 14° SSW 05:25:32 82° ESE 05:30:05 10° NNE
UNKNOWN OBJECT B 4.4 05:24:23 10° NNW 05:26:47 17° WNW 05:27:12 16° WNW
Cosmos 2285 Rocket 4.0 05:22:00 10° NNW 05:28:28 86° WSW 05:34:50 10° SSE
CZ-4B R/B 2.8 05:26:22 10° N 05:29:57 53° WNW 05:32:44 16° SSW
Cosmos 1869 4.5 05:31:15 21° WSW 05:32:31 24° WNW 05:35:49 10° NNW
Sich 1 Rocket 3.8 05:28:21 10° NNW 05:32:33 46° W 05:36:44 10° SSW
NAVSTAR 52 R/B(PAM-D 2.8 05:35:39 47° S 05:35:44 47° S 05:37:21 10° E
CZ-3 R/B 4.4 04:55:08 10° W 05:35:54 40° SW 05:46:27 10° SSE
Cosmos 1933 3.6 05:32:40 13° SSW 05:36:06 49° W 05:40:06 10° N
SL-27 R/B 3.0 05:34:01 20° SW 05:36:10 41° WNW 05:39:39 10° N
ATLAS 5 CENTAUR R/B 2.8 05:33:05 18° WSW 05:36:10 35° NW 05:40:59 10° NNE
Cosmos 1703 Rocket 3.6 05:32:09 10° SSW 05:36:36 68° W 05:41:05 10° N
USA 32 4.0 05:31:25 10° S 05:36:38 72° W 05:41:54 10° N
Cosmos 1656 Rocket 3.6 05:32:57 10° NNW 05:38:24 87° ENE 05:43:48 10° SSE
SL-08 ROCKET BODY 4.5 05:32:57 10° NNW 05:38:49 56° W 05:44:45 10° SSW
Cosmos 1992 Rocket 3.9 05:34:06 10° NNW 05:39:20 75° WSW 05:44:33 10° S
SL-16 R/B 4.2 05:50:55 11° W 05:51:55 11° W 05:53:39 10° WNW
Abrixas rocket 4.2 05:52:05 10° NW 05:55:01 27° NNE 05:57:57 10° ENE
Aureole 3 Rocket 4.0 05:48:15 10° SSW 05:55:35 61° W 06:00:48 10° N
ADEOS Rocket 3.6 05:48:06 10° N 05:55:50 77° WNW 06:03:32 10° SSW
Atlas Centaur 2 3.8 05:53:51 10° SSW 05:57:14 19° SSE 06:01:10 10° ESE
CENTAUR R/B 3.0 05:52:48 11° WSW 05:58:30 47° NW 06:05:11 10° NNE
PSLV R/B 3.8 05:55:06 10° N 05:59:23 54° WNW 06:03:39 10° SSW
USA 116 4.3 05:56:30 10° S 06:01:07 65° W 06:06:16 10° NNW
Cosmos 676 Rocket 4.2 06:00:06 10° SSW 06:05:15 76° ESE 06:10:28 10° NNE
COSMOS 2406 3.8 06:02:07 10° SW 06:07:34 42° WNW 06:13:01 10° N
Okean 2 Rocket 3.4 06:07:22 10° NNW 06:11:41 46° W 06:15:59 10° SSW
PSLV R/B 3.3 06:09:04 10° W 06:12:32 84° S 06:15:54 10° ESE
Meteor 2-13 Rocket 4.4 06:10:56 10° N 06:17:00 77° W 06:23:01 10° S
